Experimental
NORAD ID: 24954
Int'l Code: 1997-052B
Perigee: 943.2 km
Apogee: 1,000.4 km
Inclination: 82.9 °
Period: 104.4 minutes
Semi major axis: 7342 km
Launch date: September 23, 1997
Source: United States (US)
Two Line Element Set (TLE):
1 24954U 97052B 13165.52924125 .00000040 00000-0 23525-4 0 8076
2 24954 082.9237 303.4143 0038912 353.5755 077.9535 13.79780742791765
Source:
NASA's NSSDC Master Catalog entry for FAISAT 2V